Starlink 6304

operational
NORAD ID: 56778 Int'l Des: 2023-078 Owner: SPXS Country: US Constellation: starlink
LEOCIRCULAR

Starlink 6304について

説明を読み込み中...

リアルタイム位置

3D地球を読み込み中...

次回通過

高度履歴

Altitude vs Time

uPlot chart will show altitude changes over time

軌道要素

1 56778U 23078M 25259.80668163 .00001095 00000-0 99537-4 0 9996
2 56778 70.0004 43.0348 0003222 269.9783 90.1007 14.98344288127122
Epoch: Sep 16, 2025 • Age: 30 hours

現在のステータス

高度 593.9 km
速度 7.56 km/s
衛星直下点 -64.48°S, 28.79°W
打ち上げ日 May 31, 2023
運用期間 2.2 years
タイプ internet

技術仕様

分類 Payload
質量 305.00 kg
乾燥質量 290.00 kg
総質量 305.00 kg
長さ 0.20 m
直径 2.80 m
スパン 9.00 m
形状 Box + pan
製造者 SPXS
バスタイプ Starlink
フェーズステータス In Orbit
所有者/国 SPXS/US

大規模コンステレーション

Loading constellations...